Time,TemperatureF,DewpointF,PressureIn,WindDirection,WindDirectionDegrees,WindSpeedMPH,WindSpeedGustMPH,Humidity,HourlyPrecipIn,Conditions,Clouds,dailyrainin,SoftwareType,DateUTC
2013-01-23 00:00:00,31.9,21.4,29.83,ESE,113,0.4,0.7,65,0.00,,,0.00,WUHU216HW,2013-01-23 08:00:00,
2013-01-23 00:05:00,31.7,21.2,29.83,SSE,158,0.4,0.7,65,0.00,,,0.00,WUHU216HW,2013-01-23 08:05:00,
2013-01-23 00:10:00,31.7,21.2,29.83,SSE,158,0.0,0.4,65,0.00,,,0.00,WUHU216HW,2013-01-23 08:10:00,
2013-01-23 00:15:00,31.9,21.4,29.83,SSE,158,0.0,0.4,65,0.00,,,0.00,WUHU216HW,2013-01-23 08:15:00,
2013-01-23 00:20:00,31.9,21.4,29.84,SSE,158,0.4,0.4,65,0.00,,,0.00,WUHU216HW,2013-01-23 08:20:00,
2013-01-23 00:25:00,32.0,21.6,29.83,SSE,158,0.0,0.4,65,0.00,,,0.00,WUHU216HW,2013-01-23 08:25:00,
2013-01-23 00:30:00,32.0,21.6,29.82,SSE,158,0.3,0.7,65,0.00,,,0.00,WUHU216HW,2013-01-23 08:30:00,
2013-01-23 00:36:00,31.9,21.4,29.82,SSE,158,0.0,0.7,65,0.00,,,0.00,WUHU216HW,2013-01-23 08:36:00,
2013-01-23 00:41:00,31.9,21.4,29.83,WSW,248,0.7,0.9,65,0.00,,,0.00,WUHU216HW,2013-01-23 08:41:00,
2013-01-23 00:46:00,31.9,21.4,29.83,West,270,0.3,1.1,65,0.00,,,0.00,WUHU216HW,2013-01-23 08:46:00,
2013-01-23 00:51:00,31.9,21.4,29.83,West,270,0.0,1.1,65,0.00,,,0.00,WUHU216HW,2013-01-23 08:51:00,
2013-01-23 00:56:00,31.9,21.4,29.83,West,270,0.0,0.4,65,0.00,,,0.00,WUHU216HW,2013-01-23 08:56:00,
2013-01-23 01:01:00,31.9,21.4,29.83,West,270,0.0,0.0,65,0.00,,,0.00,WUHU216HW,2013-01-23 09:01:00,
2013-01-23 01:06:00,32.0,21.6,29.83,West,270,0.0,0.0,65,0.00,,,0.00,WUHU216HW,2013-01-23 09:06:00,
2013-01-23 01:11:00,32.0,21.6,29.83,West,270,0.0,0.0,65,0.00,,,0.00,WUHU216HW,2013-01-23 09:11:00,
2013-01-23 01:16:00,32.0,21.6,29.82,West,270,0.0,0.0,65,0.00,,,0.00,WUHU216HW,2013-01-23 09:16:00,
2013-01-23 01:21:00,32.0,21.6,29.82,West,270,0.0,0.0,65,0.00,,,0.00,WUHU216HW,2013-01-23 09:21:00,
2013-01-23 01:26:00,32.0,21.6,29.82,West,270,0.0,0.0,65,0.00,,,0.00,WUHU216HW,2013-01-23 09:26:00,
2013-01-23 01:31:00,32.0,21.6,29.82,West,270,0.0,0.0,65,0.00,,,0.00,WUHU216HW,2013-01-23 09:31:00,
2013-01-23 01:36:00,32.0,21.6,29.83,West,270,0.0,0.0,65,0.00,,,0.00,WUHU216HW,2013-01-23 09:36:00,
2013-01-23 01:41:00,32.0,21.6,29.82,West,270,0.4,0.7,65,0.00,,,0.00,WUHU216HW,2013-01-23 09:41:00,
2013-01-23 01:46:00,32.0,21.6,29.82,West,270,0.0,0.7,65,0.00,,,0.00,WUHU216HW,2013-01-23 09:46:00,
2013-01-23 01:52:00,32.0,21.6,29.82,West,270,0.4,0.7,65,0.00,,,0.00,WUHU216HW,2013-01-23 09:52:00,
2013-01-23 01:57:00,32.0,21.6,29.83,WSW,248,1.1,1.1,65,0.00,,,0.00,WUHU216HW,2013-01-23 09:57:00,
2013-01-23 02:02:00,32.0,21.2,29.83,WSW,248,1.0,1.3,64,0.00,,,0.00,WUHU216HW,2013-01-23 10:02:00,
2013-01-23 02:07:00,32.0,21.2,29.82,WSW,248,0.0,1.3,64,0.00,,,0.00,WUHU216HW,2013-01-23 10:07:00,
2013-01-23 02:12:00,32.0,21.2,29.82,WSW,248,0.0,1.1,64,0.00,,,0.00,WUHU216HW,2013-01-23 10:12:00,
2013-01-23 02:17:00,32.0,21.6,29.82,WSW,248,0.0,0.0,65,0.00,,,0.00,WUHU216HW,2013-01-23 10:17:00,
2013-01-23 02:22:00,32.0,21.6,29.82,WSW,248,0.0,0.0,65,0.00,,,0.00,WUHU216HW,2013-01-23 10:22:00,
2013-01-23 02:27:00,32.0,21.6,29.82,WSW,248,0.0,0.0,65,0.00,,,0.00,WUHU216HW,2013-01-23 10:27:00,
2013-01-23 02:32:00,32.0,21.6,29.82,WSW,248,0.0,0.0,65,0.00,,,0.00,WUHU216HW,2013-01-23 10:32:00,
2013-01-23 02:37:00,32.0,21.6,29.81,WSW,248,0.0,0.0,65,0.00,,,0.00,WUHU216HW,2013-01-23 10:37:00,
2013-01-23 02:42:00,32.0,21.6,29.81,WSW,248,0.0,0.0,65,0.00,,,0.00,WUHU216HW,2013-01-23 10:42:00,
2013-01-23 02:47:00,32.0,21.6,29.81,WSW,248,0.0,0.4,65,0.00,,,0.00,WUHU216HW,2013-01-23 10:47:00,
2013-01-23 02:52:00,32.0,21.6,29.80,WSW,248,0.0,0.4,65,0.00,,,0.00,WUHU216HW,2013-01-23 10:52:00,
2013-01-23 02:57:00,32.0,21.6,29.81,WSW,248,0.4,0.4,65,0.00,,,0.00,WUHU216HW,2013-01-23 10:57:00,
2013-01-23 03:02:00,32.0,21.6,29.80,WSW,248,0.0,0.7,65,0.00,,,0.00,WUHU216HW,2013-01-23 11:02:00,
2013-01-23 03:08:00,32.0,21.2,29.80,WSW,248,0.7,0.7,64,0.00,,,0.00,WUHU216HW,2013-01-23 11:08:00,
2013-01-23 03:13:00,32.0,20.9,29.80,WSW,248,1.1,1.1,63,0.00,,,0.00,WUHU216HW,2013-01-23 11:13:00,
2013-01-23 03:18:00,32.0,20.9,29.81,West,270,1.6,1.8,63,0.00,,,0.00,WUHU216HW,2013-01-23 11:18:00,
2013-01-23 03:23:00,32.0,20.9,29.80,WSW,248,0.7,1.8,63,0.00,,,0.00,WUHU216HW,2013-01-23 11:23:00,
2013-01-23 03:28:00,32.0,20.9,29.79,WSW,248,0.5,1.6,63,0.00,,,0.00,WUHU216HW,2013-01-23 11:28:00,
2013-01-23 03:33:00,32.2,21.1,29.79,WSW,248,0.0,1.1,63,0.00,,,0.00,WUHU216HW,2013-01-23 11:33:00,
2013-01-23 03:38:00,32.2,21.1,29.79,WSW,248,0.0,0.4,63,0.00,,,0.00,WUHU216HW,2013-01-23 11:38:00,
2013-01-23 03:43:00,32.2,21.1,29.79,WSW,248,0.4,0.4,63,0.00,,,0.00,WUHU216HW,2013-01-23 11:43:00,
2013-01-23 03:48:00,32.2,21.1,29.79,WSW,248,0.9,0.9,63,0.00,,,0.00,WUHU216HW,2013-01-23 11:48:00,
2013-01-23 03:53:00,32.4,21.3,29.79,WSW,245,1.1,1.3,63,0.00,,,0.00,WUHU216HW,2013-01-23 11:53:00,
2013-01-23 03:58:00,32.2,21.1,29.80,WSW,248,1.8,1.8,63,0.00,,,0.00,WUHU216HW,2013-01-23 11:58:00,
2013-01-23 04:03:00,32.4,21.3,29.80,WSW,248,0.9,1.8,63,0.00,,,0.00,WUHU216HW,2013-01-23 12:03:00,
2013-01-23 04:08:00,32.4,20.9,29.80,WSW,248,0.0,1.8,62,0.00,,,0.00,WUHU216HW,2013-01-23 12:08:00,
2013-01-23 04:13:00,32.4,21.3,29.80,WSW,248,0.0,1.1,63,0.00,,,0.00,WUHU216HW,2013-01-23 12:13:00,
2013-01-23 04:18:00,32.6,21.3,29.80,WSW,248,0.0,0.4,63,0.00,,,0.00,WUHU216HW,2013-01-23 12:18:00,
2013-01-23 04:24:00,32.6,21.3,29.79,NNE,23,0.6,1.8,63,0.00,,,0.00,WUHU216HW,2013-01-23 12:24:00,
2013-01-23 04:29:00,32.6,21.3,29.77,ENE,68,1.8,2.5,63,0.00,,,0.00,WUHU216HW,2013-01-23 12:29:00,
2013-01-23 04:34:00,32.6,21.7,29.78,SW,225,1.1,2.5,64,0.00,,,0.00,WUHU216HW,2013-01-23 12:34:00,
2013-01-23 04:39:00,32.4,21.3,29.78,West,265,1.1,2.0,63,0.00,,,0.00,WUHU216HW,2013-01-23 12:39:00,
2013-01-23 04:44:00,32.6,21.3,29.77,ESE,113,0.6,2.0,63,0.00,,,0.00,WUHU216HW,2013-01-23 12:44:00,
2013-01-23 04:49:00,32.6,21.3,29.78,ESE,113,0.4,1.8,63,0.00,,,0.00,WUHU216HW,2013-01-23 12:49:00,
2013-01-23 04:54:00,32.8,21.2,29.79,WSW,248,2.3,3.1,62,0.00,,,0.00,WUHU216HW,2013-01-23 12:54:00,
2013-01-23 04:59:00,32.6,21.0,29.79,WSW,248,1.8,3.1,62,0.00,,,0.00,WUHU216HW,2013-01-23 12:59:00,
2013-01-23 05:04:00,32.6,21.0,29.78,WSW,248,0.2,2.2,62,0.00,,,0.00,WUHU216HW,2013-01-23 13:04:00,
2013-01-23 05:10:00,32.6,21.0,29.78,West,270,0.3,1.6,62,0.00,,,0.00,WUHU216HW,2013-01-23 13:10:00,
2013-01-23 05:15:00,32.8,21.2,29.79,West,270,0.0,1.1,62,0.00,,,0.00,WUHU216HW,2013-01-23 13:15:00,
2013-01-23 05:21:00,32.8,21.2,29.79,SE,135,0.7,0.7,62,0.00,,,0.00,WUHU216HW,2013-01-23 13:21:00,
2013-01-23 05:26:00,32.8,21.2,29.78,ESE,113,1.7,2.2,62,0.00,,,0.00,WUHU216HW,2013-01-23 13:26:00,
2013-01-23 05:32:00,32.8,21.2,29.77,ESE,113,1.3,2.2,62,0.00,,,0.00,WUHU216HW,2013-01-23 13:32:00,
2013-01-23 05:37:00,32.9,21.3,29.78,ENE,68,1.6,2.2,62,0.00,,,0.00,WUHU216HW,2013-01-23 13:37:00,
2013-01-23 05:43:00,32.9,21.3,29.78,ESE,113,1.3,2.2,62,0.00,,,0.00,WUHU216HW,2013-01-23 13:43:00,
2013-01-23 05:48:00,32.9,21.3,29.77,East,84,1.6,2.2,62,0.00,,,0.00,WUHU216HW,2013-01-23 13:48:00,
2013-01-23 05:53:00,32.8,21.2,29.78,SE,136,1.6,2.9,62,0.00,,,0.00,WUHU216HW,2013-01-23 13:53:00,
2013-01-23 05:59:00,32.8,21.5,29.79,ESE,113,0.4,2.9,63,0.00,,,0.00,WUHU216HW,2013-01-23 13:59:00,
2013-01-23 06:04:00,32.8,21.5,29.79,East,90,1.6,2.0,63,0.00,,,0.00,WUHU216HW,2013-01-23 14:04:00,
2013-01-23 06:10:00,32.8,21.5,29.78,ENE,68,1.3,2.2,63,0.00,,,0.00,WUHU216HW,2013-01-23 14:10:00,
2013-01-23 06:15:00,32.8,21.5,29.78,ESE,113,1.1,2.2,63,0.00,,,0.00,WUHU216HW,2013-01-23 14:15:00,
2013-01-23 06:21:00,32.9,21.7,29.79,ESE,113,0.4,1.8,63,0.00,,,0.00,WUHU216HW,2013-01-23 14:21:00,
2013-01-23 06:26:00,32.9,21.7,29.79,ESE,113,0.2,1.1,63,0.00,,,0.00,WUHU216HW,2013-01-23 14:26:00,
2013-01-23 06:32:00,32.9,21.7,29.79,ESE,113,0.0,0.7,63,0.00,,,0.00,WUHU216HW,2013-01-23 14:32:00,
2013-01-23 06:37:00,32.9,21.7,29.79,ESE,113,0.4,0.7,63,0.00,,,0.00,WUHU216HW,2013-01-23 14:37:00,
2013-01-23 06:43:00,32.9,21.7,29.78,ESE,113,0.7,1.6,63,0.00,,,0.00,WUHU216HW,2013-01-23 14:43:00,
2013-01-23 06:48:00,32.9,21.7,29.79,ESE,113,0.5,1.6,63,0.00,,,0.00,WUHU216HW,2013-01-23 14:48:00,
2013-01-23 06:54:00,32.9,21.3,29.78,ESE,113,0.2,1.3,62,0.00,,,0.00,WUHU216HW,2013-01-23 14:54:00,
2013-01-23 06:59:00,33.1,21.5,29.79,ESE,113,0.2,0.7,62,0.00,,,0.00,WUHU216HW,2013-01-23 14:59:00,
2013-01-23 07:05:00,33.1,21.5,29.79,ESE,113,0.3,0.7,62,0.00,,,0.00,WUHU216HW,2013-01-23 15:05:00,
2013-01-23 07:17:00,33.1,21.5,29.79,ESE,113,0.0,0.9,62,0.00,,,0.00,WUHU216HW,2013-01-23 15:17:00,
2013-01-23 07:22:00,33.1,21.5,29.79,ESE,113,0.4,0.7,62,0.00,,,0.00,WUHU216HW,2013-01-23 15:22:00,
2013-01-23 07:27:00,33.1,21.5,29.79,ESE,113,0.6,0.7,62,0.00,,,0.00,WUHU216HW,2013-01-23 15:27:00,
2013-01-23 07:32:00,33.1,21.5,29.80,ESE,113,0.5,1.1,62,0.00,,,0.00,WUHU216HW,2013-01-23 15:32:00,
2013-01-23 07:38:00,33.1,21.5,29.79,ESE,113,0.0,1.1,62,0.00,,,0.00,WUHU216HW,2013-01-23 15:38:00,
2013-01-23 07:43:00,33.1,21.5,29.80,ESE,113,0.7,0.9,62,0.00,,,0.00,WUHU216HW,2013-01-23 15:43:00,
2013-01-23 07:48:00,33.1,21.5,29.80,ESE,113,0.7,1.1,62,0.00,,,0.00,WUHU216HW,2013-01-23 15:48:00,
2013-01-23 07:53:00,33.1,21.5,29.80,WSW,248,1.2,1.6,62,0.00,,,0.00,WUHU216HW,2013-01-23 15:53:00,
2013-01-23 07:58:00,33.1,21.5,29.79,SW,225,0.7,1.6,62,0.00,,,0.00,WUHU216HW,2013-01-23 15:58:00,
2013-01-23 08:03:00,33.1,21.5,29.79,SW,225,1.1,1.1,62,0.00,,,0.00,WUHU216HW,2013-01-23 16:03:00,
2013-01-23 08:08:00,33.5,21.4,29.79,SSW,203,0.7,1.1,61,0.00,,,0.00,WUHU216HW,2013-01-23 16:08:00,
2013-01-23 08:13:00,33.5,21.4,29.80,SW,225,0.5,1.1,61,0.00,,,0.00,WUHU216HW,2013-01-23 16:13:00,
2013-01-23 08:18:00,33.5,21.4,29.79,SW,225,0.3,1.1,61,0.00,,,0.00,WUHU216HW,2013-01-23 16:18:00,
2013-01-23 08:23:00,33.5,21.4,29.79,SW,225,0.0,0.4,61,0.00,,,0.00,WUHU216HW,2013-01-23 16:23:00,
2013-01-23 08:28:00,33.5,21.8,29.80,WSW,248,1.3,1.6,62,0.00,,,0.00,WUHU216HW,2013-01-23 16:28:00,
2013-01-23 08:33:00,33.5,21.4,29.79,West,279,1.8,2.2,61,0.00,,,0.00,WUHU216HW,2013-01-23 16:33:00,
2013-01-23 08:38:00,33.5,21.4,29.77,NNW,338,0.7,2.2,61,0.00,,,0.00,WUHU216HW,2013-01-23 16:38:00,
2013-01-23 08:43:00,33.7,21.6,29.78,NNE,23,0.4,1.6,61,0.00,,,0.00,WUHU216HW,2013-01-23 16:43:00,
2013-01-23 08:48:00,33.8,21.4,29.79,SW,225,2.2,2.5,60,0.00,,,0.00,WUHU216HW,2013-01-23 16:48:00,
2013-01-23 08:54:00,34.0,21.2,29.79,South,188,1.5,2.9,59,0.00,,,0.00,WUHU216HW,2013-01-23 16:54:00,
2013-01-23 08:59:00,34.2,21.3,29.79,South,171,1.2,2.9,59,0.00,,,0.00,WUHU216HW,2013-01-23 16:59:00,
2013-01-23 09:04:00,34.2,21.8,29.79,WSW,248,1.0,2.0,60,0.00,,,0.00,WUHU216HW,2013-01-23 17:04:00,
2013-01-23 09:09:00,34.2,21.8,29.81,SSW,203,3.4,3.4,60,0.00,,,0.00,WUHU216HW,2013-01-23 17:09:00,
2013-01-23 09:14:00,34.2,21.8,29.81,NW,315,0.7,3.4,60,0.00,,,0.00,WUHU216HW,2013-01-23 17:14:00,
2013-01-23 09:19:00,34.2,22.1,29.79,NW,315,0.7,3.1,61,0.00,,,0.00,WUHU216HW,2013-01-23 17:19:00,
2013-01-23 09:24:00,34.2,22.1,29.79,West,270,0.4,1.1,61,0.00,,,0.00,WUHU216HW,2013-01-23 17:24:00,
2013-01-23 09:29:00,34.4,22.3,29.80,SW,225,0.7,1.1,61,0.00,,,0.00,WUHU216HW,2013-01-23 17:29:00,
2013-01-23 09:34:00,34.6,22.1,29.81,SE,145,2.5,3.4,60,0.00,,,0.00,WUHU216HW,2013-01-23 17:34:00,
2013-01-23 09:39:00,34.7,22.3,29.82,SSW,203,1.8,3.4,60,0.00,,,0.00,WUHU216HW,2013-01-23 17:39:00,
2013-01-23 09:44:00,34.7,22.7,29.81,NW,319,1.1,2.5,61,0.00,,,0.00,WUHU216HW,2013-01-23 17:44:00,
2013-01-23 09:49:00,34.7,22.7,29.80,West,263,1.3,1.8,61,0.00,,,0.00,WUHU216HW,2013-01-23 17:49:00,
2013-01-23 09:54:00,34.9,23.2,29.80,WNW,293,1.3,2.0,62,0.00,,,0.00,WUHU216HW,2013-01-23 17:54:00,
2013-01-23 09:59:00,34.9,23.6,29.81,WSW,248,3.8,3.8,63,0.00,,,0.00,WUHU216HW,2013-01-23 17:59:00,
2013-01-23 10:05:00,34.9,24.7,29.80,WSW,248,1.1,4.3,66,0.00,,,0.00,WUHU216HW,2013-01-23 18:05:00,
2013-01-23 10:10:00,34.9,24.7,29.80,West,267,1.5,4.3,66,0.00,,,0.00,WUHU216HW,2013-01-23 18:10:00,
2013-01-23 10:15:00,35.3,24.7,29.80,NW,304,0.9,2.2,65,0.00,,,0.00,WUHU216HW,2013-01-23 18:15:00,
2013-01-23 10:20:00,35.3,25.4,29.80,WNW,293,1.3,1.8,67,0.00,,,0.00,WUHU216HW,2013-01-23 18:20:00,
2013-01-23 10:25:00,35.5,25.2,29.80,WNW,293,0.9,2.5,66,0.00,,,0.00,WUHU216HW,2013-01-23 18:25:00,
2013-01-23 10:30:00,35.5,25.2,29.80,WNW,294,1.1,2.5,66,0.00,,,0.00,WUHU216HW,2013-01-23 18:30:00,
2013-01-23 10:35:00,35.5,25.2,29.79,North,0,0.4,2.5,66,0.00,,,0.00,WUHU216HW,2013-01-23 18:35:00,
2013-01-23 10:40:00,35.6,25.0,29.80,SSW,203,2.5,2.5,65,0.00,,,0.00,WUHU216HW,2013-01-23 18:40:00,
2013-01-23 10:45:00,35.8,24.9,29.81,SW,226,1.2,2.5,64,0.00,,,0.00,WUHU216HW,2013-01-23 18:45:00,
2013-01-23 10:50:00,36.0,25.0,29.82,South,184,1.4,2.5,64,0.00,,,0.00,WUHU216HW,2013-01-23 18:50:00,
2013-01-23 10:56:00,36.2,25.2,29.82,SE,135,2.7,2.7,64,0.00,,,0.00,WUHU216HW,2013-01-23 18:56:00,
2013-01-23 11:01:00,36.4,25.4,29.82,SE,124,1.2,2.7,64,0.00,,,0.00,WUHU216HW,2013-01-23 19:01:00,
2013-01-23 11:06:00,36.2,25.2,29.82,SE,135,1.3,2.7,64,0.00,,,0.00,WUHU216HW,2013-01-23 19:06:00,
2013-01-23 11:11:00,36.2,25.6,29.83,ESE,113,2.0,2.2,65,0.01,,,0.01,WUHU216HW,2013-01-23 19:11:00,
2013-01-23 11:16:00,36.2,25.6,29.82,SE,135,0.9,2.2,65,0.01,,,0.01,WUHU216HW,2013-01-23 19:16:00,
2013-01-23 11:21:00,36.2,25.6,29.82,SE,135,2.2,2.5,65,0.01,,,0.01,WUHU216HW,2013-01-23 19:21:00,
2013-01-23 11:26:00,36.2,25.6,29.82,ESE,113,1.0,2.5,65,0.01,,,0.01,WUHU216HW,2013-01-23 19:26:00,
2013-01-23 11:31:00,36.2,25.6,29.82,SSE,147,0.8,2.5,65,0.01,,,0.01,WUHU216HW,2013-01-23 19:31:00,
2013-01-23 11:36:00,36.2,25.9,29.82,SE,141,1.9,3.1,66,0.01,,,0.01,WUHU216HW,2013-01-23 19:36:00,
2013-01-23 11:41:00,36.2,25.9,29.82,SSE,158,2.0,3.1,66,0.02,,,0.02,WUHU216HW,2013-01-23 19:41:00,
2013-01-23 11:46:00,36.4,25.8,29.82,SW,225,0.4,2.5,65,0.02,,,0.02,WUHU216HW,2013-01-23 19:46:00,
2013-01-23 11:51:00,36.2,25.6,29.81,SE,143,0.7,2.0,65,0.02,,,0.02,WUHU216HW,2013-01-23 19:51:00,
2013-01-23 11:56:00,36.4,25.8,29.81,SSE,166,1.3,2.5,65,0.03,,,0.03,WUHU216HW,2013-01-23 19:56:00,
2013-01-23 12:02:00,36.4,25.8,29.81,SW,214,0.4,2.5,65,0.03,,,0.03,WUHU216HW,2013-01-23 20:02:00,
2013-01-23 12:07:00,36.5,25.5,29.81,SSW,195,0.9,1.3,64,0.03,,,0.03,WUHU216HW,2013-01-23 20:07:00,
2013-01-23 12:12:00,36.4,25.8,29.81,ESE,113,0.7,2.0,65,0.03,,,0.04,WUHU216HW,2013-01-23 20:12:00,
2013-01-23 12:17:00,36.4,26.1,29.81,SE,140,0.8,2.0,66,0.03,,,0.04,WUHU216HW,2013-01-23 20:17:00,
2013-01-23 12:22:00,36.4,26.1,29.81,SW,225,1.1,1.6,66,0.03,,,0.04,WUHU216HW,2013-01-23 20:22:00,
2013-01-23 12:27:00,36.4,26.1,29.81,SSW,213,1.6,2.2,66,0.05,,,0.06,WUHU216HW,2013-01-23 20:27:00,
2013-01-23 12:32:00,36.4,26.5,29.82,SW,233,0.4,2.2,67,0.05,,,0.06,WUHU216HW,2013-01-23 20:32:00,
2013-01-23 12:37:00,36.4,26.5,29.82,WSW,248,2.7,2.7,67,0.05,,,0.06,WUHU216HW,2013-01-23 20:37:00,
2013-01-23 12:42:00,36.4,26.8,29.82,SSW,203,2.5,3.1,68,0.04,,,0.06,WUHU216HW,2013-01-23 20:42:00,
2013-01-23 12:47:00,36.4,26.8,29.82,SW,218,1.8,3.1,68,0.06,,,0.08,WUHU216HW,2013-01-23 20:47:00,
2013-01-23 12:53:00,36.2,27.0,29.82,SSW,203,1.8,2.7,69,0.06,,,0.08,WUHU216HW,2013-01-23 20:53:00,
2013-01-23 12:58:00,36.4,26.8,29.82,SSE,158,0.7,2.7,68,0.05,,,0.08,WUHU216HW,2013-01-23 20:58:00,
2013-01-23 13:03:00,36.4,26.5,29.82,West,270,1.8,2.9,67,0.06,,,0.09,WUHU216HW,2013-01-23 21:03:00,
2013-01-23 13:08:00,36.4,26.5,29.82,SW,225,1.1,2.9,67,0.08,,,0.11,WUHU216HW,2013-01-23 21:08:00,
2013-01-23 13:13:00,36.4,26.5,29.82,WSW,248,1.1,2.2,67,0.07,,,0.11,WUHU216HW,2013-01-23 21:13:00,
2013-01-23 13:18:00,36.0,27.6,29.82,WSW,248,2.7,3.4,71,0.07,,,0.11,WUHU216HW,2013-01-23 21:18:00,
2013-01-23 13:23:00,36.0,27.2,29.82,South,184,1.3,3.4,70,0.09,,,0.13,WUHU216HW,2013-01-23 21:23:00,
2013-01-23 13:28:00,36.0,26.5,29.82,WSW,242,2.1,2.9,68,0.07,,,0.13,WUHU216HW,2013-01-23 21:28:00,
2013-01-23 13:33:00,36.0,26.5,29.82,WSW,248,1.8,2.9,68,0.07,,,0.13,WUHU216HW,2013-01-23 21:33:00,
2013-01-23 13:38:00,36.0,26.5,29.82,WSW,241,0.9,2.5,68,0.09,,,0.15,WUHU216HW,2013-01-23 21:38:00,
2013-01-23 13:43:00,36.2,26.3,29.82,South,180,2.2,2.5,67,0.09,,,0.15,WUHU216HW,2013-01-23 21:43:00,
2013-01-23 13:48:00,36.2,26.3,29.83,West,270,2.7,2.7,67,0.07,,,0.15,WUHU216HW,2013-01-23 21:48:00,
2013-01-23 13:53:00,36.0,26.5,29.82,WSW,245,0.8,3.4,68,0.07,,,0.15,WUHU216HW,2013-01-23 21:53:00,
2013-01-23 13:58:00,36.0,26.1,29.83,SW,235,1.5,3.4,67,0.09,,,0.17,WUHU216HW,2013-01-23 21:58:00,
2013-01-23 14:04:00,36.0,26.1,29.83,South,180,0.9,1.8,67,0.08,,,0.17,WUHU216HW,2013-01-23 22:04:00,
2013-01-23 14:09:00,36.2,26.3,29.83,SSE,161,0.3,1.8,67,0.07,,,0.18,WUHU216HW,2013-01-23 22:09:00,
2013-01-23 14:14:00,35.8,26.3,29.84,WSW,248,2.2,2.5,68,0.08,,,0.19,WUHU216HW,2013-01-23 22:14:00,
2013-01-23 14:19:00,35.8,26.3,29.83,WSW,248,0.9,2.5,68,0.09,,,0.20,WUHU216HW,2013-01-23 22:19:00,
2013-01-23 14:24:00,35.8,25.9,29.84,WSW,248,0.4,1.8,67,0.08,,,0.21,WUHU216HW,2013-01-23 22:24:00,
2013-01-23 14:29:00,36.0,25.8,29.85,WSW,248,1.8,1.8,66,0.09,,,0.22,WUHU216HW,2013-01-23 22:29:00,
2013-01-23 14:34:00,35.8,25.6,29.85,WNW,290,1.8,2.9,66,0.09,,,0.22,WUHU216HW,2013-01-23 22:34:00,
2013-01-23 14:39:00,35.8,25.6,29.85,West,270,0.4,2.9,66,0.09,,,0.24,WUHU216HW,2013-01-23 22:39:00,
2013-01-23 14:44:00,36.0,25.4,29.85,South,178,0.9,1.8,65,0.11,,,0.26,WUHU216HW,2013-01-23 22:44:00,
2013-01-23 14:49:00,36.0,25.4,29.86,SE,135,0.8,1.3,65,0.12,,,0.27,WUHU216HW,2013-01-23 22:49:00,
2013-01-23 14:54:00,36.0,25.4,29.86,SE,140,1.3,2.0,65,0.13,,,0.28,WUHU216HW,2013-01-23 22:54:00,
2013-01-23 14:59:00,36.0,25.0,29.86,West,270,1.3,2.0,64,0.11,,,0.28,WUHU216HW,2013-01-23 22:59:00,
2013-01-23 15:05:00,36.0,25.0,29.87,West,270,1.0,1.8,64,0.12,,,0.29,WUHU216HW,2013-01-23 23:05:00,
2013-01-23 15:10:00,36.0,24.7,29.87,South,180,1.8,1.8,63,0.11,,,0.29,WUHU216HW,2013-01-23 23:10:00,
2013-01-23 15:15:00,36.4,24.9,29.87,SSW,203,1.1,1.8,63,0.11,,,0.30,WUHU216HW,2013-01-23 23:15:00,
2013-01-23 15:20:00,36.4,24.9,29.87,SSW,202,0.8,1.8,63,0.10,,,0.30,WUHU216HW,2013-01-23 23:20:00,
2013-01-23 15:25:00,36.2,24.9,29.87,SW,225,0.5,1.6,63,0.09,,,0.30,WUHU216HW,2013-01-23 23:25:00,
2013-01-23 15:30:00,36.2,24.5,29.87,SSE,158,1.8,1.8,62,0.09,,,0.31,WUHU216HW,2013-01-23 23:30:00,
2013-01-23 15:35:00,36.2,24.5,29.88,SSW,203,1.1,1.8,62,0.09,,,0.31,WUHU216HW,2013-01-23 23:35:00,
2013-01-23 15:40:00,36.2,24.5,29.88,SW,228,1.2,1.8,62,0.06,,,0.31,WUHU216HW,2013-01-23 23:40:00,
2013-01-23 15:45:00,36.4,24.6,29.89,SW,225,1.1,1.8,62,0.05,,,0.31,WUHU216HW,2013-01-23 23:45:00,
2013-01-23 15:50:00,36.4,24.2,29.88,WSW,248,0.9,2.0,61,0.04,,,0.31,WUHU216HW,2013-01-23 23:50:00,
2013-01-23 15:55:00,36.4,23.9,29.88,SSW,207,0.9,2.5,60,0.03,,,0.31,WUHU216HW,2013-01-23 23:55:00,
2013-01-23 16:01:00,36.4,23.9,29.88,SSE,158,1.8,2.5,60,0.03,,,0.31,WUHU216HW,2013-01-24 00:01:00,
2013-01-23 16:06:00,36.5,24.0,29.89,SSE,155,1.2,2.0,60,0.02,,,0.31,WUHU216HW,2013-01-24 00:06:00,
2013-01-23 16:11:00,36.5,24.0,29.89,SW,225,1.1,2.0,60,0.01,,,0.31,WUHU216HW,2013-01-24 00:11:00,
2013-01-23 16:16:00,36.4,24.2,29.89,SW,225,1.1,3.1,61,0.01,,,0.31,WUHU216HW,2013-01-24 00:16:00,
2013-01-23 16:21:00,36.4,24.2,29.89,South,183,0.7,3.1,61,0.01,,,0.31,WUHU216HW,2013-01-24 00:21:00,
2013-01-23 16:26:00,36.4,24.2,29.89,WSW,248,0.7,2.0,61,0.00,,,0.31,WUHU216HW,2013-01-24 00:26:00,
2013-01-23 16:31:00,36.4,24.2,29.89,SW,220,0.7,2.0,61,0.00,,,0.31,WUHU216HW,2013-01-24 00:31:00,
2013-01-23 16:36:00,36.4,24.2,29.90,SW,225,0.0,1.8,61,0.00,,,0.31,WUHU216HW,2013-01-24 00:36:00,
2013-01-23 16:41:00,36.4,24.6,29.90,ESE,121,0.6,0.7,62,0.00,,,0.31,WUHU216HW,2013-01-24 00:41:00,
2013-01-23 16:46:00,36.4,24.6,29.90,ESE,113,0.3,0.9,62,0.00,,,0.31,WUHU216HW,2013-01-24 00:46:00,
2013-01-23 16:51:00,36.2,24.5,29.90,ESE,113,0.7,0.9,62,0.00,,,0.31,WUHU216HW,2013-01-24 00:51:00,
2013-01-23 16:56:00,36.2,24.5,29.90,ESE,113,0.0,0.9,62,0.01,,,0.32,WUHU216HW,2013-01-24 00:56:00,
2013-01-23 17:01:00,36.2,24.5,29.90,ESE,113,0.4,0.9,62,0.01,,,0.32,WUHU216HW,2013-01-24 01:01:00,
2013-01-23 17:06:00,36.2,24.5,29.91,ESE,113,0.5,0.9,62,0.01,,,0.32,WUHU216HW,2013-01-24 01:06:00,
2013-01-23 17:11:00,36.2,24.5,29.91,ESE,113,0.3,0.9,62,0.01,,,0.32,WUHU216HW,2013-01-24 01:11:00,
2013-01-23 17:17:00,36.2,24.5,29.92,ESE,113,0.5,0.9,62,0.01,,,0.32,WUHU216HW,2013-01-24 01:17:00,
2013-01-23 17:22:00,36.2,24.5,29.92,ESE,113,0.3,0.7,62,0.01,,,0.32,WUHU216HW,2013-01-24 01:22:00,
2013-01-23 17:27:00,36.0,24.3,29.92,ESE,113,0.0,0.4,62,0.01,,,0.32,WUHU216HW,2013-01-24 01:27:00,
2013-01-23 17:32:00,36.0,24.3,29.92,ESE,113,0.0,0.0,62,0.01,,,0.32,WUHU216HW,2013-01-24 01:32:00,
2013-01-23 17:37:00,36.0,24.3,29.92,ESE,113,0.3,0.4,62,0.01,,,0.32,WUHU216HW,2013-01-24 01:37:00,
2013-01-23 17:42:00,36.0,24.3,29.93,ESE,113,0.0,0.4,62,0.01,,,0.32,WUHU216HW,2013-01-24 01:42:00,
2013-01-23 17:47:00,36.0,24.3,29.94,ESE,113,0.0,0.0,62,0.01,,,0.32,WUHU216HW,2013-01-24 01:47:00,
2013-01-23 17:52:00,36.0,24.3,29.94,ESE,113,0.0,0.0,62,0.01,,,0.32,WUHU216HW,2013-01-24 01:52:00,
2013-01-23 17:57:00,36.0,24.3,29.94,ESE,113,0.3,0.4,62,0.00,,,0.32,WUHU216HW,2013-01-24 01:57:00,
2013-01-23 18:02:00,36.0,24.3,29.94,ESE,113,0.0,0.4,62,0.00,,,0.32,WUHU216HW,2013-01-24 02:02:00,
2013-01-23 18:08:00,36.0,24.3,29.94,ESE,113,0.0,0.0,62,0.00,,,0.32,WUHU216HW,2013-01-24 02:08:00,
2013-01-23 18:13:00,36.0,24.3,29.95,ESE,113,0.0,0.0,62,0.00,,,0.32,WUHU216HW,2013-01-24 02:13:00,
2013-01-23 18:18:00,36.0,24.3,29.95,ESE,113,0.4,0.4,62,0.00,,,0.32,WUHU216HW,2013-01-24 02:18:00,
2013-01-23 18:23:00,35.8,24.1,29.95,ESE,113,0.4,0.4,62,0.00,,,0.32,WUHU216HW,2013-01-24 02:23:00,
2013-01-23 18:28:00,35.8,24.1,29.95,ESE,113,0.5,0.9,62,0.00,,,0.32,WUHU216HW,2013-01-24 02:28:00,
2013-01-23 18:33:00,36.0,24.0,29.95,ESE,113,0.2,0.9,61,0.00,,,0.32,WUHU216HW,2013-01-24 02:33:00,
2013-01-23 18:38:00,36.0,24.0,29.95,ESE,113,0.0,0.4,61,0.00,,,0.32,WUHU216HW,2013-01-24 02:38:00,
2013-01-23 18:43:00,36.0,24.0,29.95,ESE,113,0.0,0.4,61,0.00,,,0.32,WUHU216HW,2013-01-24 02:43:00,
2013-01-23 18:48:00,35.8,23.8,29.96,ESE,113,0.0,0.0,61,0.00,,,0.32,WUHU216HW,2013-01-24 02:48:00,
2013-01-23 18:53:00,35.8,23.8,29.96,ESE,113,0.0,0.0,61,0.00,,,0.32,WUHU216HW,2013-01-24 02:53:00,
2013-01-23 18:58:00,35.8,23.8,29.96,ESE,113,0.2,0.4,61,0.00,,,0.32,WUHU216HW,2013-01-24 02:58:00,
2013-01-23 19:03:00,35.8,23.8,29.97,ESE,113,0.9,0.9,61,0.00,,,0.32,WUHU216HW,2013-01-24 03:03:00,
2013-01-23 19:08:00,35.6,23.6,29.97,ESE,113,0.4,1.1,61,0.00,,,0.32,WUHU216HW,2013-01-24 03:08:00,
2013-01-23 19:13:00,35.5,23.4,29.97,ESE,113,0.4,1.1,61,0.00,,,0.32,WUHU216HW,2013-01-24 03:13:00,
2013-01-23 19:18:00,35.5,23.0,29.98,ESE,113,0.2,0.7,60,0.00,,,0.32,WUHU216HW,2013-01-24 03:18:00,
2013-01-23 19:24:00,35.5,23.0,29.98,ESE,113,0.0,0.7,60,0.00,,,0.32,WUHU216HW,2013-01-24 03:24:00,
2013-01-23 19:29:00,35.6,23.2,29.98,SE,133,0.3,0.7,60,0.00,,,0.32,WUHU216HW,2013-01-24 03:29:00,
2013-01-23 19:34:00,35.6,23.2,29.99,SE,135,0.0,0.7,60,0.00,,,0.32,WUHU216HW,2013-01-24 03:34:00,
2013-01-23 19:39:00,35.6,23.2,29.99,SE,135,0.6,1.1,60,0.00,,,0.32,WUHU216HW,2013-01-24 03:39:00,
2013-01-23 19:44:00,35.6,23.2,30.00,SE,135,0.0,1.1,60,0.00,,,0.32,WUHU216HW,2013-01-24 03:44:00,
2013-01-23 19:49:00,35.6,23.2,30.00,SE,135,0.0,0.0,60,0.00,,,0.32,WUHU216HW,2013-01-24 03:49:00,
2013-01-23 19:54:00,35.6,23.2,30.00,SE,135,0.0,0.0,60,0.00,,,0.32,WUHU216HW,2013-01-24 03:54:00,
2013-01-23 19:59:00,35.6,22.8,30.00,SE,135,0.0,0.0,59,0.00,,,0.32,WUHU216HW,2013-01-24 03:59:00,
2013-01-23 20:04:00,35.6,22.8,30.01,SE,135,0.0,0.0,59,0.00,,,0.32,WUHU216HW,2013-01-24 04:04:00,
2013-01-23 20:09:00,35.6,22.8,30.01,ESE,113,0.0,0.0,59,0.00,,,0.32,WUHU216HW,2013-01-24 04:09:00,
2013-01-23 20:14:00,35.6,22.8,30.01,ESE,113,0.0,0.0,59,0.00,,,0.32,WUHU216HW,2013-01-24 04:14:00,
2013-01-23 20:19:00,35.6,22.8,30.01,ESE,113,0.8,0.9,59,0.00,,,0.32,WUHU216HW,2013-01-24 04:19:00,
2013-01-23 20:24:00,35.6,22.8,30.01,ESE,113,0.0,0.9,59,0.00,,,0.32,WUHU216HW,2013-01-24 04:24:00,
2013-01-23 20:30:00,35.5,23.0,30.01,ESE,113,0.0,0.7,60,0.00,,,0.32,WUHU216HW,2013-01-24 04:30:00,
2013-01-23 20:35:00,35.3,22.9,30.01,SSW,203,0.0,0.0,60,0.00,,,0.32,WUHU216HW,2013-01-24 04:35:00,
2013-01-23 20:40:00,34.9,22.5,30.02,SSW,203,0.0,0.2,60,0.00,,,0.32,WUHU216HW,2013-01-24 04:40:00,
2013-01-23 20:45:00,34.9,22.5,30.02,SSW,203,0.0,0.2,60,0.00,,,0.32,WUHU216HW,2013-01-24 04:45:00,
2013-01-23 20:50:00,34.6,22.5,30.02,SSW,203,0.0,0.9,61,0.00,,,0.32,WUHU216HW,2013-01-24 04:50:00,
2013-01-23 20:55:00,34.6,22.5,30.02,SSW,203,0.0,0.9,61,0.00,,,0.32,WUHU216HW,2013-01-24 04:55:00,
2013-01-23 21:00:00,34.4,22.3,30.02,SSW,203,0.0,0.0,61,0.00,,,0.32,WUHU216HW,2013-01-24 05:00:00,
2013-01-23 21:02:00,34.2,22.1,30.02,SSW,203,0.0,0.0,61,0.00,,,0.32,WUHU216HW,2013-01-24 05:02:00,
2013-01-23 21:03:00,34.2,22.1,30.02,SSW,203,0.0,0.0,61,0.00,,,0.32,WUHU216HW,2013-01-24 05:03:00,
2013-01-23 21:04:00,34.2,22.5,30.02,SSW,203,0.0,0.0,62,0.00,,,0.32,WUHU216HW,2013-01-24 05:04:00,
2013-01-23 21:09:00,34.0,22.3,30.02,SSW,203,0.0,0.0,62,0.00,,,0.32,WUHU216HW,2013-01-24 05:09:00,
2013-01-23 21:14:00,33.7,22.3,30.02,SSW,203,0.3,0.4,63,0.00,,,0.32,WUHU216HW,2013-01-24 05:14:00,
2013-01-23 21:19:00,33.3,22.4,30.02,SSW,203,0.4,0.7,64,0.00,,,0.32,WUHU216HW,2013-01-24 05:19:00,
2013-01-23 21:24:00,33.1,22.2,30.02,SW,225,1.1,1.3,64,0.00,,,0.32,WUHU216HW,2013-01-24 05:24:00,
2013-01-23 21:29:00,32.9,21.7,30.02,SW,225,0.5,1.3,63,0.00,,,0.32,WUHU216HW,2013-01-24 05:29:00,
2013-01-23 21:34:00,32.8,21.9,30.02,SW,225,0.4,1.3,64,0.00,,,0.32,WUHU216HW,2013-01-24 05:34:00,
2013-01-23 21:39:00,32.8,21.5,30.02,SSW,203,1.1,1.1,63,0.00,,,0.32,WUHU216HW,2013-01-24 05:39:00,
2013-01-23 21:44:00,32.6,21.7,30.02,SSW,203,0.7,1.1,64,0.00,,,0.32,WUHU216HW,2013-01-24 05:44:00,
2013-01-23 21:50:00,32.4,21.6,30.03,SSW,203,1.1,1.1,64,0.00,,,0.32,WUHU216HW,2013-01-24 05:50:00,
2013-01-23 21:55:00,32.0,20.9,30.03,SSW,203,0.9,1.1,63,0.00,,,0.32,WUHU216HW,2013-01-24 05:55:00,
2013-01-23 22:00:00,32.0,21.2,30.03,SSW,203,0.4,0.9,64,0.00,,,0.32,WUHU216HW,2013-01-24 06:00:00,
2013-01-23 22:05:00,31.9,21.1,30.03,SSW,203,1.0,1.1,64,0.00,,,0.32,WUHU216HW,2013-01-24 06:05:00,
2013-01-23 22:10:00,31.9,20.7,30.04,SSW,203,0.9,1.1,63,0.00,,,0.32,WUHU216HW,2013-01-24 06:10:00,
2013-01-23 22:15:00,31.7,20.5,30.04,SSW,203,1.1,1.1,63,0.00,,,0.32,WUHU216HW,2013-01-24 06:15:00,
2013-01-23 22:20:00,31.7,20.2,30.04,SSW,203,0.2,1.1,62,0.00,,,0.32,WUHU216HW,2013-01-24 06:20:00,
2013-01-23 22:25:00,31.7,20.2,30.04,SSW,203,0.5,0.7,62,0.00,,,0.32,WUHU216HW,2013-01-24 06:25:00,
2013-01-23 22:30:00,31.5,20.0,30.05,SSW,203,0.7,0.7,62,0.00,,,0.32,WUHU216HW,2013-01-24 06:30:00,
2013-01-23 22:35:00,31.7,19.8,30.05,SSW,203,0.7,0.7,61,0.00,,,0.32,WUHU216HW,2013-01-24 06:35:00,
2013-01-23 22:40:00,31.9,20.0,30.05,SSW,203,0.5,0.9,61,0.00,,,0.32,WUHU216HW,2013-01-24 06:40:00,
2013-01-23 22:45:00,31.7,20.2,30.05,SSW,203,0.0,0.9,62,0.00,,,0.32,WUHU216HW,2013-01-24 06:45:00,
2013-01-23 22:50:00,31.3,19.8,30.05,SSW,203,0.7,0.7,62,0.00,,,0.32,WUHU216HW,2013-01-24 06:50:00,
2013-01-23 22:55:00,31.0,19.4,30.06,SSW,203,1.1,1.1,62,0.00,,,0.32,WUHU216HW,2013-01-24 06:55:00,
2013-01-23 23:00:00,31.1,19.3,30.06,SSW,203,0.4,1.1,61,0.00,,,0.32,WUHU216HW,2013-01-24 07:00:00,
2013-01-23 23:06:00,31.3,19.4,30.05,SSW,203,0.0,0.9,61,0.00,,,0.32,WUHU216HW,2013-01-24 07:06:00,
2013-01-23 23:11:00,31.3,19.4,30.06,SSW,203,0.0,0.4,61,0.00,,,0.32,WUHU216HW,2013-01-24 07:11:00,
2013-01-23 23:16:00,31.3,19.4,30.05,SSW,203,0.0,0.0,61,0.00,,,0.32,WUHU216HW,2013-01-24 07:16:00,
2013-01-23 23:21:00,31.3,19.8,30.06,SSW,203,0.7,0.7,62,0.00,,,0.32,WUHU216HW,2013-01-24 07:21:00,
2013-01-23 23:26:00,31.0,18.7,30.06,SSW,203,0.7,0.7,60,0.00,,,0.32,WUHU216HW,2013-01-24 07:26:00,
2013-01-23 23:31:00,31.0,18.7,30.06,SSW,203,0.4,0.7,60,0.00,,,0.32,WUHU216HW,2013-01-24 07:31:00,
2013-01-23 23:36:00,31.1,18.9,30.06,SSW,203,0.4,0.9,60,0.00,,,0.32,WUHU216HW,2013-01-24 07:36:00,
2013-01-23 23:41:00,31.3,18.6,30.06,SSW,203,0.2,0.9,59,0.00,,,0.32,WUHU216HW,2013-01-24 07:41:00,
2013-01-23 23:46:00,31.3,19.1,30.06,SSW,203,0.0,0.4,60,0.00,,,0.32,WUHU216HW,2013-01-24 07:46:00,
2013-01-23 23:51:00,31.3,18.6,30.06,SSW,203,0.0,0.0,59,0.00,,,0.32,WUHU216HW,2013-01-24 07:51:00,
2013-01-23 23:56:00,31.3,18.6,30.06,SSW,203,0.0,0.2,59,0.00,,,0.32,WUHU216HW,2013-01-24 07:56:00,